Regional Weather Roundup
Issued by NWS Green Bay, WI

Home | Current Version | Previous Version | Text Only | Print | Product List | Glossary On
Versions: 1 2 3 4 5 6 7 8 9 10 11 12 13 14 15 16 17 18 19 20 21 22 23 24 25 26 27 28 29 30 31 32 33 34 35 36 37 38 39 40 41 42 43 44 45 46 47 48 49 50
000
ASUS43 KGRB 031210
RWRGRB

NORTH-CENTRAL AND NORTHEAST WISCONSIN REGIONAL WEATHER ROUNDUP
NATIONAL WEATHER SERVICE GREEN BAY WI
700 AM CDT SUN MAY 03 2015

WIZ005-009-010>012-018-019-031300-
NORTH CENTRAL WISCONSIN

CITY           SKY/WX    TMP DP  RH WIND       PRES   REMARKS
IRONWOOD       MOSUNNY   61  50  67 SW12      29.74F
MANITOWISH WTR CLOUDY    57  49  75 SW8       29.83R
ARBOR VITAE    SUNNY     57  50  79 SW8       29.84R
EAGLE RIVER    SUNNY     55  47  73 SW5       29.83S
LAND O LAKES   SUNNY     57  49  74 S3        29.84R
RHINELANDER    SUNNY     56  48  74 SW8       29.85R
PHILLIPS       PTSUNNY   55  49  80 SW6       29.83R
ANTIGO         SUNNY     54  49  84 SW7       29.86S
TOMAHAWK       SUNNY     51  48  89 CALM      29.85R
MERRILL        SUNNY     56  50  79 CALM      29.84S
$$

WIZ013-073-031300-
NORTHEAST WISCONSIN

CITY           SKY/WX    TMP DP  RH WIND       PRES   REMARKS
IRON MOUNTAIN  SUNNY     55  47  74 SE5       29.83R
MARINETTE      SUNNY     57  45  62 SW6       29.86S
OCONTO         SUNNY     58  48  71 SW3       29.87R
$$

WIZ017-030-035>037-045-031300-
CENTRAL WISCONSIN

CITY           SKY/WX    TMP DP  RH WIND       PRES   REMARKS
MEDFORD        SUNNY     55  49  81 S5        29.84R
WAUSAU         SUNNY     56  50  80 S7        29.84R
MOSINEE        SUNNY     54  50  87 S6        29.87R
MARSHFIELD     SUNNY     55  50  83 S7        29.84S
WISC RAPIDS    SUNNY     57  48  72 S8        29.87R
STEVENS POINT  SUNNY     54  48  79 S6        29.86S
WAUPACA        SUNNY     55  48  77 S3        29.88S
SHAWANO        SUNNY     58  48  69 SW3       29.87S
CLINTONVILLE   SUNNY     54  46  76 S3        29.87S
$$

WIZ038-039-048-051-031300-
FOX VALLEY

CITY           SKY/WX    TMP DP  RH WIND       PRES   REMARKS
NWS GREEN BAY  MOSUNNY   56  48  74 S6        29.89R
APPLETON       MOSUNNY   55  46  71 SW8       29.90R
OSHKOSH        SUNNY     57  48  72 S12       29.89S
FOND DU LAC    SUNNY     59  47  64 S12       29.91R
$$

WIZ022-050-052-031300-
EAST CENTRAL WISCONSIN

CITY           SKY/WX    TMP DP  RH WIND       PRES   REMARKS
STURGEON BAY   SUNNY     57  46  67 SW9       29.91R
MANITOWOC      CLOUDY    52  48  86 S3        29.91R
SHEBOYGAN      CLOUDY    57  48  72 S8        29.92R
$$

LMZ563-521-522-541>543-031300-
LAKESHORE

STATION/POSITION TIME  TEMP    WIND        PRES    VSBY  WAVE
                       AIR SEA DIR/SP/G                  HT/PER
                 (UTC) (F)     (DEG/KT/KT) (MB)    (MI)  (FT/S)
SHEBOYGAN LKSHOR 1200   53     180/ 12/ 13 1013.6R
KEWAUNEE LKSHORE 1200   49     190/  6/  8 1011.7R
NORTHPORT PIER   1200   54     180/  3/  6 1011.5S
SISTER BAY LKSHO 1100   62     230/ 14/ 19   N/A
CHAMBERS ISLAND  1200   57     170/  5/ 12 1011.9R
MENOMINEE LKSHOR 1200   58     210/ 11/ 12 1012.0R
$$



USA.gov is the U.S. government's official web portal to all federal, state and local government web resources and services.